| time (UTC) | temp C | wind direction | speed KPH | gust KPH | rain 1hr cm | rain 24hr cm | rain mn cm | humidity % | barometer mb |
| 20260507040719 | 7 | 17 | 0.0 | 0.0 | 0.00 | 1.27 | 0.00 | 97 | 1012.0 |
| 20260507040218 | 7 | 17 | 0.0 | 1.6 | 0.00 | 1.27 | 0.00 | 97 | 1012.0 |
| 20260507035718 | 7 | 17 | 0.0 | 0.0 | 0.00 | 1.27 | 0.00 | 97 | 1012.0 |
| 20260507035218 | 7 | 17 | 0.0 | 1.6 | 0.00 | 1.27 | 0.00 | 97 | 1012.0 |
| 20260507034718 | 7 | 17 | 0.0 | 0.0 | 0.00 | 1.27 | 0.00 | 97 | 1011.9 |
| 20260507034217 | 7 | 17 | 0.0 | 0.0 | 0.00 | 1.40 | 0.00 | 97 | 1011.9 |
| 20260507033717 | 7 | 17 | 0.0 | 0.0 | 0.00 | 1.40 | 0.00 | 97 | 1011.8 |
| 20260507033217 | 7 | 17 | 0.0 | 0.0 | 0.00 | 1.40 | 0.00 | 97 | 1011.8 |
| 20260507032716 | 7 | 17 | 0.0 | 0.0 | 0.00 | 1.40 | 0.00 | 97 | 1011.8 |
| 20260507032216 | 7 | 17 | 0.0 | 0.0 | 0.00 | 1.40 | 0.00 | 97 | 1011.8 |
| 20260507031716 | 7 | 17 | 0.0 | 0.0 | 0.00 | 1.40 | 0.00 | 97 | 1011.7 |
| 20260507031216 | 7 | 17 | 0.0 | 0.0 | 0.00 | 1.40 | 0.00 | 97 | 1011.7 |
| 20260507030715 | 7 | 17 | 0.0 | 0.0 | 0.00 | 1.40 | 0.00 | 97 | 1011.6 |
| 20260507030215 | 7 | 17 | 0.0 | 0.0 | 0.00 | 1.40 | 0.00 | 97 | 1011.6 |
| 20260507025715 | 7 | 17 | 0.0 | 0.0 | 0.00 | 1.40 | 0.00 | 97 | 1011.6 |
| 20260507025214 | 7 | 17 | 0.0 | 1.6 | 0.00 | 1.40 | 0.00 | 97 | 1011.5 |
| 20260507024714 | 7 | 17 | 0.0 | 0.0 | 0.00 | 1.40 | 0.00 | 97 | 1011.5 |
| 20260507024214 | 7 | 17 | 0.0 | 6.4 | 0.00 | 1.55 | 0.00 | 97 | 1011.5 |
| 20260507023714 | 7 | 354 | 0.0 | 3.2 | 0.00 | 1.55 | 0.00 | 97 | 1011.5 |
| 20260507023213 | 7 | 348 | 1.6 | 1.6 | 0.00 | 1.55 | 0.00 | 97 | 1011.5 |
| 20260507022713 | 7 | 348 | 1.6 | 4.8 | 0.00 | 1.55 | 0.00 | 97 | 1011.5 |
| 20260507022213 | 7 | 23 | 3.2 | 6.4 | 0.00 | 1.55 | 0.00 | 97 | 1011.4 |
| 20260507021712 | 7 | 8 | 3.2 | 6.4 | 0.00 | 1.55 | 0.00 | 97 | 1011.4 |
| 20260507021212 | 7 | 8 | 3.2 | 8.0 | 0.00 | 1.55 | 0.00 | 97 | 1011.4 |
| 20260507020712 | 7 | 6 | 1.6 | 4.8 | 0.00 | 1.55 | 0.00 | 97 | 1011.4 |
| 20260507020212 | 7 | 10 | 1.6 | 6.4 | 0.00 | 1.55 | 0.00 | 97 | 1011.4 |
| 20260507015711 | 7 | 20 | 1.6 | 4.8 | 0.00 | 1.55 | 0.00 | 97 | 1011.4 |
| 20260507015211 | 7 | 20 | 1.6 | 4.8 | 0.00 | 1.55 | 0.00 | 98 | 1011.2 |
| 20260507014711 | 7 | 20 | 3.2 | 6.4 | 0.00 | 1.55 | 0.00 | 98 | 1011.2 |
| 20260507014210 | 7 | 12 | 4.8 | 11.3 | 0.00 | 1.78 | 0.00 | 98 | 1011.2 |
| 20260507013710 | 7 | 22 | 3.2 | 11.3 | 0.00 | 1.78 | 0.00 | 98 | 1011.1 |
| 20260507013210 | 7 | 4 | 3.2 | 8.0 | 0.00 | 1.78 | 0.00 | 98 | 1011.2 |
| 20260507012710 | 7 | 35 | 3.2 | 6.4 | 0.00 | 1.78 | 0.00 | 98 | 1011.2 |
| 20260507012209 | 7 | 2 | 3.2 | 6.4 | 0.00 | 1.78 | 0.00 | 98 | 1011.1 |
| 20260507011709 | 7 | 27 | 1.6 | 4.8 | 0.00 | 1.78 | 0.00 | 98 | 1011.1 |
| 20260507011209 | 7 | 27 | 1.6 | 4.8 | 0.00 | 1.78 | 0.00 | 98 | 1011.1 |
| 20260507010709 | 7 | 27 | 1.6 | 6.4 | 0.00 | 1.78 | 0.00 | 98 | 1011.1 |
| 20260507010208 | 7 | 40 | 0.0 | 4.8 | 0.00 | 1.78 | 0.00 | 98 | 1011.1 |
| 20260507005708 | 7 | 347 | 0.0 | 3.2 | 0.00 | 1.78 | 0.00 | 98 | 1011.0 |
| 20260507005208 | 7 | 347 | 0.0 | 3.2 | 0.00 | 1.78 | 0.00 | 98 | 1011.0 |
| 20260507004707 | 7 | 347 | 0.0 | 1.6 | 0.00 | 1.78 | 0.00 | 98 | 1010.9 |
| 20260507004207 | 7 | 347 | 0.0 | 3.2 | 0.00 | 1.98 | 0.00 | 98 | 1010.9 |
| 20260507003707 | 7 | 347 | 1.6 | 4.8 | 0.00 | 1.98 | 0.00 | 98 | 1010.9 |
| 20260507003207 | 7 | 347 | 1.6 | 4.8 | 0.00 | 1.98 | 0.00 | 98 | 1010.8 |
| 20260507002706 | 7 | 347 | 1.6 | 4.8 | 0.00 | 1.98 | 0.00 | 98 | 1010.9 |
| 20260507002206 | 7 | 347 | 1.6 | 3.2 | 0.00 | 1.98 | 0.00 | 98 | 1010.8 |
| 20260507001706 | 7 | 347 | 1.6 | 3.2 | 0.00 | 1.98 | 0.00 | 98 | 1010.8 |
| 20260507001205 | 7 | 347 | 0.0 | 3.2 | 0.00 | 1.98 | 0.00 | 98 | 1010.9 |
| 20260507000706 | 7 | 347 | 0.0 | 3.2 | 0.00 | 1.98 | 0.00 | 98 | 1010.9 |
| 20260507000205 | 7 | 347 | 0.0 | 0.0 | 0.00 | 1.98 | 0.00 | 98 | 1010.9 |
| 20260506235705 | 7 | 347 | 0.0 | 0.0 | 0.00 | 1.98 | 0.00 | 98 | 1010.9 |
| 20260506235204 | 7 | 347 | 0.0 | 0.0 | 0.00 | 1.98 | 0.00 | 97 | 1010.9 |
| 20260506234704 | 7 | 347 | 0.0 | 0.0 | 0.00 | 1.98 | 0.00 | 97 | 1010.9 |
| 20260506234204 | 7 | 347 | 0.0 | 0.0 | 0.00 | 2.21 | 0.00 | 97 | 1010.9 |
| 20260506233703 | 7 | 347 | 0.0 | 1.6 | 0.00 | 2.21 | 0.00 | 97 | 1010.9 |
| 20260506233203 | 7 | 347 | 0.0 | 0.0 | 0.00 | 2.21 | 0.00 | 97 | 1010.9 |
| 20260506232703 | 7 | 347 | 0.0 | 0.0 | 0.00 | 2.21 | 0.00 | 97 | 1010.8 |
| 20260506232203 | 7 | 347 | 0.0 | 1.6 | 0.00 | 2.21 | 0.00 | 98 | 1010.6 |
| 20260506231702 | 7 | 347 | 0.0 | 0.0 | 0.00 | 2.21 | 0.00 | 98 | 1010.6 |
| 20260506231202 | 7 | 347 | 0.0 | 0.0 | 0.00 | 2.21 | 0.00 | 98 | 1010.6 |
| 20260506230702 | 7 | 347 | 0.0 | 0.0 | 0.00 | 2.21 | 0.00 | 98 | 1010.6 |
| 20260506230201 | 7 | 347 | 0.0 | 0.0 | 0.00 | 2.21 | 0.00 | 98 | 1010.6 |
| 20260506225701 | 7 | 347 | 0.0 | 1.6 | 0.00 | 2.21 | 0.00 | 98 | 1010.5 |
| 20260506225201 | 7 | 347 | 0.0 | 0.0 | 0.00 | 2.21 | 0.00 | 98 | 1010.5 |
| 20260506224701 | 7 | 347 | 0.0 | 1.6 | 0.00 | 2.21 | 0.00 | 98 | 1010.4 |
| 20260506224200 | 7 | 347 | 0.0 | 0.0 | 0.00 | 2.74 | 0.00 | 98 | 1010.5 |
| 20260506223700 | 7 | 347 | 0.0 | 1.6 | 0.00 | 2.74 | 0.00 | 97 | 1010.5 |
| 20260506223200 | 7 | 347 | 0.0 | 0.0 | 0.00 | 2.74 | 0.00 | 97 | 1010.4 |
| 20260506222659 | 7 | 347 | 0.0 | 0.0 | 0.00 | 2.74 | 2.82 | 97 | 1010.3 |
| 20260506222159 | 7 | 347 | 0.0 | 1.6 | 0.00 | 2.74 | 2.82 | 97 | 1010.3 |
| 20260506221659 | 7 | 347 | 0.0 | 3.2 | 0.00 | 2.74 | 2.82 | 97 | 1010.3 |
| 20260506221159 | 7 | 347 | 0.0 | 3.2 | 0.00 | 2.74 | 2.82 | 97 | 1010.3 |
| 20260506220658 | 7 | 347 | 0.0 | 3.2 | 0.00 | 2.74 | 2.82 | 97 | 1010.3 |
| 20260506220158 | 7 | 347 | 0.0 | 3.2 | 0.00 | 2.74 | 2.82 | 97 | 1010.3 |
| 20260506215658 | 7 | 347 | 0.0 | 0.0 | 0.00 | 2.74 | 2.82 | 97 | 1010.3 |
| 20260506215158 | 7 | 347 | 1.6 | 4.8 | 0.00 | 2.74 | 2.82 | 97 | 1010.3 |
| 20260506214657 | 7 | 347 | 0.0 | 4.8 | 0.00 | 2.74 | 2.82 | 97 | 1010.3 |
| 20260506214157 | 7 | 355 | 1.6 | 4.8 | 0.00 | 3.05 | 2.82 | 97 | 1010.2 |
| 20260506213657 | 7 | 355 | 1.6 | 4.8 | 0.00 | 3.05 | 2.82 | 97 | 1010.2 |
| 20260506213156 | 7 | 355 | 1.6 | 4.8 | 0.00 | 3.05 | 2.82 | 98 | 1010.1 |
| 20260506212656 | 7 | 17 | 1.6 | 4.8 | 0.00 | 3.05 | 2.82 | 98 | 1010.1 |
| 20260506212156 | 7 | 350 | 1.6 | 6.4 | 0.00 | 3.05 | 2.82 | 98 | 1010.1 |
| 20260506211656 | 7 | 350 | 3.2 | 6.4 | 0.00 | 3.05 | 2.82 | 98 | 1010.1 |
| 20260506211155 | 7 | 5 | 3.2 | 11.3 | 0.00 | 3.05 | 2.82 | 98 | 1010.1 |
| 20260506210655 | 7 | 357 | 1.6 | 6.4 | 0.00 | 3.05 | 2.82 | 98 | 1010.1 |
| 20260506210155 | 7 | 14 | 1.6 | 6.4 | 0.00 | 3.05 | 2.82 | 98 | 1010.1 |
| 20260506205654 | 7 | 349 | 1.6 | 6.4 | 0.00 | 3.05 | 2.82 | 98 | 1010.1 |
| 20260506205154 | 7 | 15 | 1.6 | 6.4 | 0.00 | 3.05 | 2.82 | 98 | 1010.0 |
| 20260506204654 | 7 | 7 | 3.2 | 6.4 | 0.00 | 3.05 | 2.82 | 98 | 1009.9 |
| 20260506204154 | 7 | 69 | 1.6 | 6.4 | 0.00 | 3.10 | 2.82 | 98 | 1010.0 |
| 20260506203653 | 8 | 40 | 1.6 | 4.8 | 0.00 | 3.10 | 2.82 | 98 | 1010.0 |
| 20260506203153 | 8 | 25 | 1.6 | 9.7 | 0.00 | 3.10 | 2.82 | 98 | 1010.0 |
| 20260506202653 | 8 | 69 | 1.6 | 4.8 | 0.00 | 3.10 | 2.82 | 98 | 1009.9 |
| 20260506202152 | 8 | 33 | 1.6 | 8.0 | 0.00 | 3.10 | 2.82 | 98 | 1009.8 |
| 20260506201652 | 8 | 50 | 3.2 | 6.4 | 0.00 | 3.10 | 2.82 | 98 | 1009.9 |
| 20260506201152 | 8 | 7 | 3.2 | 9.7 | 0.00 | 3.10 | 2.82 | 98 | 1009.9 |
| 20260506200652 | 7 | 35 | 1.6 | 4.8 | 0.00 | 3.10 | 2.82 | 98 | 1009.9 |
| 20260506200152 | 7 | 4 | 1.6 | 4.8 | 0.00 | 3.10 | 2.82 | 98 | 1009.8 |
| 20260506195651 | 7 | 4 | 1.6 | 6.4 | 0.00 | 3.10 | 2.82 | 98 | 1009.7 |
| 20260506195151 | 7 | 15 | 1.6 | 4.8 | 0.00 | 3.10 | 2.82 | 98 | 1009.7 |
| 20260506194650 | 7 | 15 | 3.2 | 6.4 | 0.00 | 3.10 | 2.82 | 98 | 1009.6 |
| 20260506194150 | 7 | 33 | 1.6 | 4.8 | 0.00 | 3.10 | 2.82 | 98 | 1009.6 |
| 20260506193650 | 7 | 33 | 1.6 | 4.8 | 0.00 | 3.10 | 2.82 | 98 | 1009.7 |
| 20260506193150 | 7 | 33 | 1.6 | 3.2 | 0.00 | 3.10 | 2.82 | 98 | 1009.7 |
| 20260506192649 | 7 | 33 | 1.6 | 4.8 | 0.00 | 3.10 | 2.82 | 98 | 1009.6 |
| 20260506192149 | 7 | 52 | 1.6 | 4.8 | 0.00 | 3.10 | 2.82 | 98 | 1009.5 |
| 20260506191649 | 7 | 11 | 1.6 | 4.8 | 0.00 | 3.10 | 2.82 | 98 | 1009.4 |
| 20260506191148 | 7 | 23 | 3.2 | 11.3 | 0.00 | 3.10 | 2.82 | 98 | 1009.3 |
| 20260506190648 | 8 | 9 | 1.6 | 6.4 | 0.00 | 3.10 | 2.82 | 98 | 1009.3 |
| 20260506190148 | 8 | 36 | 1.6 | 9.7 | 0.00 | 3.10 | 2.82 | 98 | 1009.2 |
| 20260506185648 | 8 | 15 | 1.6 | 4.8 | 0.00 | 3.10 | 2.82 | 98 | 1009.1 |
| 20260506185147 | 8 | 3 | 3.2 | 3.2 | 0.00 | 3.10 | 2.82 | 98 | 1009.2 |
| 20260506184647 | 8 | 34 | 3.2 | 8.0 | 0.00 | 3.10 | 2.82 | 98 | 1009.1 |
| 20260506184147 | 8 | 33 | 3.2 | 8.0 | 0.00 | 3.10 | 2.82 | 98 | 1009.0 |
| 20260506183646 | 8 | 46 | 3.2 | 9.7 | 0.00 | 3.10 | 2.82 | 98 | 1009.0 |
| 20260506183146 | 8 | 31 | 3.2 | 6.4 | 0.00 | 3.10 | 2.82 | 98 | 1008.9 |
| 20260506182646 | 8 | 11 | 3.2 | 11.3 | 0.00 | 3.10 | 2.82 | 98 | 1008.9 |
| 20260506182146 | 8 | 48 | 3.2 | 8.0 | 0.00 | 3.10 | 2.82 | 98 | 1008.8 |
| 20260506181645 | 8 | 11 | 1.6 | 6.4 | 0.00 | 3.10 | 2.82 | 98 | 1008.8 |
| 20260506181145 | 8 | 25 | 3.2 | 8.0 | 0.00 | 3.10 | 2.82 | 98 | 1008.7 |
| 20260506180645 | 8 | 23 | 3.2 | 11.3 | 0.00 | 3.10 | 2.82 | 98 | 1008.7 |
| 20260506180145 | 8 | 32 | 3.2 | 4.8 | 0.00 | 3.10 | 2.82 | 98 | 1008.5 |
| 20260506175644 | 8 | 31 | 3.2 | 8.0 | 0.00 | 3.10 | 2.82 | 98 | 1008.5 |
| 20260506175144 | 8 | 35 | 3.2 | 14.5 | 0.00 | 3.10 | 2.82 | 98 | 1008.4 |
| 20260506174644 | 8 | 44 | 3.2 | 12.9 | 0.00 | 3.10 | 2.82 | 98 | 1008.4 |
| 20260506174143 | 8 | 8 | 3.2 | 16.1 | 0.00 | 3.10 | 2.82 | 99 | 1008.3 |
| 20260506173643 | 8 | 19 | 3.2 | 9.7 | 0.00 | 3.10 | 2.82 | 99 | 1008.3 |
| 20260506173143 | 8 | 50 | 3.2 | 16.1 | 0.00 | 3.10 | 2.82 | 98 | 1008.2 |
| 20260506172642 | 8 | 27 | 3.2 | 6.4 | 0.00 | 3.10 | 2.82 | 98 | 1008.2 |
| 20260506172142 | 8 | 23 | 3.2 | 9.7 | 0.00 | 3.10 | 2.82 | 99 | 1008.2 |
| 20260506171642 | 8 | 28 | 4.8 | 11.3 | 0.00 | 3.10 | 2.82 | 99 | 1008.1 |
| 20260506171142 | 8 | 10 | 3.2 | 16.1 | 0.00 | 3.10 | 2.82 | 99 | 1008.0 |
| 20260506170641 | 8 | 42 | 1.6 | 4.8 | 0.00 | 3.10 | 2.82 | 99 | 1008.0 |
| 20260506170141 | 8 | 348 | 1.6 | 6.4 | 0.00 | 3.10 | 2.82 | 99 | 1007.9 |
| 20260506165641 | 8 | 12 | 1.6 | 6.4 | 0.00 | 3.10 | 2.82 | 99 | 1007.9 |
| 20260506165141 | 8 | 25 | 1.6 | 8.0 | 0.00 | 3.10 | 2.82 | 99 | 1007.9 |
| 20260506164640 | 8 | 39 | 1.6 | 6.4 | 0.00 | 3.10 | 2.82 | 99 | 1007.9 |
| 20260506164140 | 8 | 58 | 1.6 | 3.2 | 0.00 | 3.10 | 2.82 | 99 | 1007.9 |
| 20260506163640 | 8 | 48 | 3.2 | 8.0 | 0.00 | 3.10 | 2.82 | 99 | 1007.9 |
| 20260506163139 | 8 | 27 | 3.2 | 11.3 | 0.00 | 3.10 | 2.82 | 99 | 1007.9 |
| 20260506162639 | 8 | 17 | 3.2 | 8.0 | 0.00 | 3.10 | 2.82 | 99 | 1007.9 |
| 20260506162139 | 8 | 104 | 1.6 | 8.0 | 0.00 | 3.10 | 2.82 | 99 | 1007.8 |
| 20260506161639 | 8 | 42 | 1.6 | 4.8 | 0.00 | 3.10 | 2.82 | 99 | 1007.7 |
| 20260506161138 | 8 | 36 | 1.6 | 3.2 | 0.00 | 3.10 | 2.82 | 99 | 1007.7 |
| 20260506160638 | 8 | 332 | 3.2 | 6.4 | 0.00 | 3.10 | 2.82 | 99 | 1007.8 |
| 20260506160138 | 8 | 32 | 3.2 | 9.7 | 0.00 | 3.10 | 2.82 | 99 | 1007.8 |
| 20260506155637 | 8 | 11 | 3.2 | 9.7 | 0.00 | 3.10 | 2.82 | 99 | 1007.8 |
| 20260506155137 | 8 | 0 | 3.2 | 12.9 | 0.00 | 3.10 | 2.82 | 99 | 1007.8 |
| 20260506154637 | 9 | 337 | 3.2 | 8.0 | 0.00 | 3.10 | 2.82 | 99 | 1007.7 |
| 20260506154137 | 9 | 358 | 1.6 | 11.3 | 0.00 | 3.10 | 2.82 | 99 | 1007.7 |
| 20260506153636 | 9 | 44 | 1.6 | 6.4 | 0.00 | 3.10 | 2.82 | 99 | 1007.7 |
| 20260506153136 | 9 | 24 | 1.6 | 4.8 | 0.00 | 3.10 | 2.82 | 99 | 1007.7 |
| 20260506152636 | 9 | 13 | 3.2 | 8.0 | 0.00 | 3.10 | 2.82 | 99 | 1007.7 |
| 20260506152135 | 9 | 56 | 1.6 | 6.4 | 0.00 | 3.10 | 2.82 | 99 | 1007.7 |
| 20260506151635 | 9 | 13 | 1.6 | 6.4 | 0.00 | 3.10 | 2.82 | 99 | 1007.6 |
| 20260506151135 | 9 | 11 | 1.6 | 16.1 | 0.00 | 3.10 | 2.82 | 99 | 1007.6 |
| 20260506150635 | 9 | 28 | 1.6 | 4.8 | 0.00 | 3.10 | 2.82 | 99 | 1007.5 |
| 20260506150134 | 9 | 31 | 1.6 | 4.8 | 0.00 | 3.10 | 2.82 | 99 | 1007.5 |
| 20260506145634 | 8 | 14 | 1.6 | 6.4 | 0.00 | 3.10 | 2.82 | 99 | 1007.5 |
| 20260506145134 | 9 | 38 | 1.6 | 6.4 | 0.00 | 3.10 | 2.82 | 99 | 1007.4 |
| 20260506144633 | 9 | 54 | 1.6 | 6.4 | 0.03 | 3.10 | 2.82 | 99 | 1007.4 |
| 20260506144133 | 9 | 4 | 1.6 | 3.2 | 0.03 | 3.10 | 2.82 | 99 | 1007.4 |
| 20260506143633 | 9 | 4 | 1.6 | 4.8 | 0.03 | 3.10 | 2.82 | 99 | 1007.4 |
| 20260506143133 | 9 | 71 | 0.0 | 3.2 | 0.03 | 3.10 | 2.82 | 99 | 1007.4 |
| 20260506142632 | 9 | 78 | 1.6 | 3.2 | 0.03 | 3.10 | 2.82 | 99 | 1007.3 |
| 20260506142132 | 9 | 13 | 1.6 | 4.8 | 0.03 | 3.10 | 2.82 | 99 | 1007.4 |
| 20260506141632 | 8 | 10 | 0.0 | 3.2 | 0.03 | 3.10 | 2.82 | 99 | 1007.4 |
| 20260506141131 | 8 | 67 | 0.0 | 1.6 | 0.03 | 3.10 | 2.82 | 99 | 1007.4 |
| 20260506140631 | 8 | 67 | 1.6 | 3.2 | 0.03 | 3.10 | 2.82 | 99 | 1007.4 |
| 20260506140131 | 8 | 67 | 1.6 | 6.4 | 0.03 | 3.10 | 2.82 | 99 | 1007.4 |
| 20260506135631 | 8 | 67 | 3.2 | 14.5 | 0.03 | 3.10 | 2.82 | 99 | 1007.4 |
| 20260506135130 | 8 | 94 | 1.6 | 6.4 | 0.03 | 3.10 | 2.82 | 99 | 1007.5 |
| 20260506134630 | 8 | 52 | 1.6 | 3.2 | 0.00 | 3.07 | 2.79 | 99 | 1007.4 |
| 20260506134130 | 8 | 358 | 3.2 | 6.4 | 0.03 | 3.07 | 2.79 | 99 | 1007.4 |
| 20260506133630 | 8 | 28 | 3.2 | 9.7 | 0.03 | 3.07 | 2.79 | 99 | 1007.4 |
| 20260506133129 | 8 | 52 | 1.6 | 6.4 | 0.03 | 3.07 | 2.79 | 99 | 1007.4 |
| 20260506132629 | 8 | 34 | 3.2 | 6.4 | 0.05 | 3.07 | 2.79 | 99 | 1007.4 |
| 20260506132129 | 8 | 28 | 3.2 | 11.3 | 0.05 | 3.07 | 2.79 | 99 | 1007.4 |
| 20260506131628 | 8 | 61 | 3.2 | 6.4 | 0.05 | 3.07 | 2.79 | 99 | 1007.3 |
| 20260506131128 | 8 | 23 | 3.2 | 4.8 | 0.05 | 3.07 | 2.79 | 99 | 1007.3 |
| 20260506130628 | 8 | 57 | 1.6 | 11.3 | 0.08 | 3.07 | 2.79 | 99 | 1007.2 |
| 20260506130128 | 8 | 86 | 1.6 | 6.4 | 0.08 | 3.07 | 2.79 | 99 | 1007.3 |
| 20260506125627 | 8 | 133 | 1.6 | 3.2 | 0.08 | 3.07 | 2.79 | 99 | 1007.2 |
| 20260506125127 | 8 | 21 | 3.2 | 11.3 | 0.08 | 3.07 | 2.79 | 99 | 1007.2 |
| 20260506124627 | 8 | 8 | 3.2 | 12.9 | 0.10 | 3.07 | 2.79 | 99 | 1007.3 |
| 20260506124126 | 8 | 353 | 3.2 | 6.4 | 0.08 | 3.05 | 2.77 | 99 | 1007.2 |
| 20260506123626 | 8 | 6 | 3.2 | 6.4 | 0.10 | 3.05 | 2.77 | 99 | 1007.1 |
| 20260506123126 | 8 | 11 | 3.2 | 9.7 | 0.10 | 3.05 | 2.77 | 99 | 1007.1 |
| 20260506122626 | 8 | 46 | 3.2 | 4.8 | 0.10 | 3.02 | 2.74 | 99 | 1007.1 |
| 20260506122125 | 8 | 32 | 3.2 | 11.3 | 0.13 | 3.02 | 2.74 | 99 | 1007.0 |
| 20260506121625 | 8 | 6 | 1.6 | 6.4 | 0.15 | 3.02 | 2.74 | 99 | 1007.0 |
| 20260506121125 | 8 | 32 | 3.2 | 6.4 | 0.18 | 3.02 | 2.74 | 98 | 1007.0 |
| 20260506120624 | 8 | 354 | 3.2 | 11.3 | 0.18 | 3.00 | 2.72 | 98 | 1006.9 |
| 20260506120124 | 8 | 23 | 3.2 | 9.7 | 0.20 | 3.00 | 2.72 | 99 | 1006.9 |
| 20260506115624 | 8 | 79 | 3.2 | 9.7 | 0.23 | 3.00 | 2.72 | 99 | 1006.8 |
| 20260506115124 | 8 | 54 | 3.2 | 8.0 | 0.23 | 3.00 | 2.72 | 99 | 1006.8 |
| 20260506114623 | 8 | 27 | 3.2 | 11.3 | 0.23 | 2.97 | 2.69 | 99 | 1006.7 |
| 20260506114123 | 8 | 23 | 3.2 | 11.3 | 0.23 | 3.00 | 2.69 | 99 | 1006.7 |
| 20260506113623 | 8 | 13 | 3.2 | 9.7 | 0.20 | 2.97 | 2.67 | 99 | 1006.7 |
| 20260506113122 | 8 | 44 | 3.2 | 6.4 | 0.23 | 2.97 | 2.67 | 99 | 1006.7 |
| 20260506112622 | 8 | 14 | 3.2 | 6.4 | 0.20 | 2.95 | 2.64 | 99 | 1006.8 |
| 20260506112122 | 8 | 55 | 3.2 | 8.0 | 0.20 | 2.92 | 2.62 | 99 | 1006.7 |
| 20260506111622 | 8 | 13 | 3.2 | 6.4 | 0.18 | 2.90 | 2.59 | 99 | 1006.7 |
| 20260506111121 | 8 | 358 | 1.6 | 9.7 | 0.15 | 2.87 | 2.57 | 99 | 1006.7 |
| 20260506110621 | 8 | 18 | 1.6 | 4.8 | 0.15 | 2.84 | 2.54 | 99 | 1006.6 |
| 20260506110121 | 8 | 54 | 1.6 | 6.4 | 0.13 | 2.82 | 2.51 | 99 | 1006.6 |
| 20260506105620 | 8 | 2 | 1.6 | 9.7 | 0.13 | 2.79 | 2.49 | 99 | 1006.6 |
| 20260506105120 | 8 | 135 | 1.6 | 4.8 | 0.13 | 2.79 | 2.49 | 99 | 1006.6 |
| 20260506104620 | 8 | 23 | 3.2 | 9.7 | 0.13 | 2.77 | 2.46 | 99 | 1006.6 |
| 20260506104120 | 8 | 31 | 3.2 | 11.3 | 0.13 | 2.77 | 2.46 | 99 | 1006.5 |
| 20260506103619 | 8 | 5 | 3.2 | 6.4 | 0.15 | 2.77 | 2.46 | 99 | 1006.5 |
| 20260506103119 | 8 | 44 | 3.2 | 8.0 | 0.13 | 2.74 | 2.44 | 99 | 1006.4 |
| 20260506102619 | 8 | 32 | 3.2 | 6.4 | 0.13 | 2.74 | 2.44 | 99 | 1006.4 |
| 20260506102118 | 8 | 36 | 3.2 | 6.4 | 0.13 | 2.72 | 2.41 | 99 | 1006.3 |
| 20260506101618 | 8 | 30 | 3.2 | 4.8 | 0.15 | 2.72 | 2.41 | 99 | 1006.3 |
| 20260506101118 | 8 | 23 | 3.2 | 4.8 | 0.15 | 2.72 | 2.41 | 99 | 1006.2 |
| 20260506100618 | 8 | 34 | 3.2 | 9.7 | 0.15 | 2.69 | 2.39 | 99 | 1006.2 |
| 20260506100117 | 8 | 29 | 3.2 | 12.9 | 0.15 | 2.69 | 2.39 | 99 | 1006.2 |
| 20260506095617 | 8 | 2 | 3.2 | 4.8 | 0.13 | 2.67 | 2.36 | 99 | 1006.1 |
| 20260506095117 | 8 | 40 | 3.2 | 11.3 | 0.15 | 2.67 | 2.36 | 99 | 1006.1 |
| 20260506094617 | 8 | 76 | 3.2 | 9.7 | 0.13 | 2.64 | 2.34 | 99 | 1006.0 |
| 20260506094116 | 8 | 355 | 3.2 | 9.7 | 0.13 | 2.64 | 2.34 | 99 | 1006.0 |
| 20260506093616 | 8 | 24 | 3.2 | 11.3 | 0.13 | 2.62 | 2.31 | 99 | 1006.0 |
| 20260506093116 | 8 | 21 | 4.8 | 14.5 | 0.13 | 2.62 | 2.31 | 99 | 1006.0 |
| 20260506092615 | 8 | 16 | 4.8 | 11.3 | 0.13 | 2.62 | 2.31 | 99 | 1006.0 |
| 20260506092115 | 8 | 17 | 4.8 | 14.5 | 0.10 | 2.59 | 2.29 | 98 | 1006.0 |
| 20260506091615 | 8 | 16 | 4.8 | 12.9 | 0.10 | 2.57 | 2.26 | 99 | 1005.8 |
| 20260506091115 | 8 | 30 | 4.8 | 9.7 | 0.10 | 2.57 | 2.26 | 99 | 1005.8 |
| 20260506090614 | 8 | 18 | 3.2 | 9.7 | 0.08 | 2.54 | 2.24 | 99 | 1005.8 |
| 20260506090114 | 9 | 352 | 3.2 | 11.3 | 0.08 | 2.54 | 2.24 | 99 | 1005.8 |
| 20260506085614 | 9 | 23 | 3.2 | 9.7 | 0.08 | 2.54 | 2.24 | 99 | 1005.7 |
| 20260506085113 | 9 | 15 | 3.2 | 11.3 | 0.05 | 2.51 | 2.21 | 99 | 1005.7 |
| 20260506084613 | 8 | 21 | 4.8 | 11.3 | 0.08 | 2.51 | 2.21 | 99 | 1005.7 |
| 20260506084113 | 8 | 42 | 4.8 | 9.7 | 0.08 | 2.51 | 2.21 | 99 | 1005.6 |
| 20260506083613 | 9 | 33 | 3.2 | 14.5 | 0.05 | 2.49 | 2.18 | 99 | 1005.6 |
| 20260506083112 | 9 | 13 | 3.2 | 6.4 | 0.08 | 2.49 | 2.18 | 99 | 1005.6 |
| 20260506082612 | 9 | 77 | 3.2 | 6.4 | 0.08 | 2.49 | 2.18 | 99 | 1005.5 |
| 20260506082112 | 9 | 19 | 3.2 | 8.0 | 0.08 | 2.49 | 2.18 | 99 | 1005.5 |
| 20260506081611 | 9 | 31 | 3.2 | 11.3 | 0.08 | 2.46 | 2.16 | 99 | 1005.5 |
| 20260506081111 | 9 | 29 | 1.6 | 6.4 | 0.10 | 2.46 | 2.16 | 99 | 1005.5 |
| 20260506080611 | 9 | 20 | 3.2 | 4.8 | 0.10 | 2.46 | 2.16 | 99 | 1005.5 |
| 20260506080111 | 9 | 38 | 4.8 | 9.7 | 0.13 | 2.46 | 2.16 | 99 | 1005.4 |
| 20260506073109 | 9 | 94 | 1.6 | 11.3 | 0.15 | 2.41 | 2.11 | 99 | 1005.3 |
| 20260506072609 | 9 | 31 | 1.6 | 9.7 | 0.18 | 2.41 | 2.11 | 99 | 1005.3 |
| 20260506072108 | 9 | 23 | 1.6 | 3.2 | 0.20 | 2.41 | 2.11 | 99 | 1005.3 |
| 20260506071608 | 9 | 23 | 1.6 | 4.8 | 0.18 | 2.39 | 2.08 | 99 | 1005.2 |
| 20260506071108 | 9 | 11 | 0.0 | 1.6 | 0.18 | 2.36 | 2.06 | 99 | 1005.2 |
| 20260506070608 | 9 | 11 | 1.6 | 4.8 | 0.18 | 2.36 | 2.06 | 99 | 1005.2 |
| 20260506070107 | 9 | 36 | 0.0 | 8.0 | 0.18 | 2.34 | 2.03 | 99 | 1005.2 |
| 20260506062105 | 9 | 346 | 3.2 | 8.0 | 0.20 | 2.49 | 1.91 | 99 | 1005.1 |
| 20260506061605 | 9 | 38 | 3.2 | 6.4 | 0.23 | 2.49 | 1.91 | 99 | 1005.1 |
| 20260506061104 | 9 | 25 | 3.2 | 8.0 | 0.23 | 2.46 | 1.88 | 99 | 1005.0 |
| 20260506060604 | 8 | 34 | 3.2 | 8.0 | 0.23 | 2.46 | 1.88 | 98 | 1005.0 |
| 20260506060104 | 8 | 15 | 3.2 | 11.3 | 0.23 | 2.44 | 1.85 | 99 | 1005.0 |
| 20260506051101 | 9 | 24 | 3.2 | 11.3 | 0.18 | 2.72 | 1.65 | 98 | 1004.9 |
| 20260506050601 | 9 | 5 | 1.6 | 9.7 | 0.18 | 2.72 | 1.65 | 98 | 1004.9 |
| 20260506045100 | 9 | 314 | 1.6 | 4.8 | 0.13 | 2.64 | 1.57 | 98 | 1004.9 |
| 20260506044600 | 9 | 2 | 3.2 | 6.4 | 0.13 | 2.62 | 1.55 | 98 | 1004.8 |
| 20260506044059 | 9 | 24 | 3.2 | 6.4 | 0.13 | 2.69 | 1.55 | 98 | 1004.8 |
| 20260506043559 | 9 | 34 | 3.2 | 8.0 | 0.13 | 2.67 | 1.52 | 98 | 1004.8 |
| 20260506043059 | 9 | 23 | 3.2 | 6.4 | 0.13 | 2.67 | 1.52 | 98 | 1004.8 |
| 20260506042558 | 9 | 22 | 3.2 | 4.8 | 0.10 | 2.64 | 1.50 | 98 | 1004.8 |
| 20260506042058 | 9 | 323 | 3.2 | 4.8 | 0.10 | 2.64 | 1.50 | 98 | 1004.8 |
| 20260506041558 | 9 | 25 | 3.2 | 8.0 | 0.13 | 2.64 | 1.50 | 98 | 1004.7 |
| 20260506041058 | 9 | 2 | 3.2 | 3.2 | 0.10 | 2.62 | 1.47 | 98 | 1004.8 |